Location: Mentone
(34.5413°N, 85.5351°W)
Time: 17:09:42
(UTC-05:00)

Amateur Radio Satellites - All Passes

Search period start: 06 July 2015 16:39
Search period end: 07 July 2015 16:39
Location: Mentone, 34.5413°N, 85.5351°W

Satellite Date Start Highest point End Downlink Frequencies (MHz)
Time Altitude Azimuth
YUBILEINY 06 Jul 16:40:46 16:45:33 15° 279° (W) 16:49:42 435.215
STARS 06 Jul 16:41:49 16:45:45 32° 288° (WNW) 16:49:37 437.465
SO-50 06 Jul 16:51:21 16:55:43 36° 306° (NW) 17:00:11 436.795
O/OREOS (USA 219) 06 Jul 16:51:47 16:56:11 49° 67° (ENE) 17:00:36 437.305
Cosmos 2491 06 Jul 16:57:33 17:04:18 23° 292° (WNW) 17:10:38 435.465 / 435.565
Cubesat XI-IV 06 Jul 17:01:16 17:04:17 16° 66° (ENE) 17:07:34 437.490
JUGNU 06 Jul 17:16:52 17:21:00 19° 181° (S) 17:25:09 437.505
AO-7 06 Jul 17:33:37 17:39:43 21° 268° (W) 17:45:23 29.400- 29.500
AIST 2 06 Jul 17:55:56 17:59:29 27° 248° (WSW) 18:02:55 435.215
CUTE-I 06 Jul 18:03:41 18:08:58 64° 75° (ENE) 18:14:19 437.470
MOZHAYETS 4 06 Jul 18:06:21 18:10:14 26° 289° (WNW) 18:14:00
SRMSAT 06 Jul 18:13:30 18:17:31 19° 176° (S) 18:21:32 437.500
Cosmos 2504 06 Jul 18:29:35 18:35:39 25° 273° (W) 18:41:42 435.465 / 435.565
O/OREOS (USA 219) 06 Jul 18:33:15 18:35:13 12° 260° (W) 18:36:56 437.305
BRITE-PL 06 Jul 18:37:15 18:40:03 15° 69° (ENE) 18:43:02 437.365/2234.400
Cubesat XI-IV 06 Jul 18:38:41 18:43:57 58° 259° (W) 18:49:16 437.490
CUBESAT XI-V 06 Jul 18:38:59 18:43:33 52° 99° (E) 18:48:05 437.345
DANDE 06 Jul 18:51:26 18:53:52 33° 79° (E) 18:56:16 436.750
STRAND 1 06 Jul 18:54:27 18:58:30 24° 94° (E) 19:02:40 437.568
JUGNU 06 Jul 19:06:00 19:09:21 15° 190° (S) 19:12:39 437.505
CUSAT 1 06 Jul 19:12:49 19:15:15 36° 263° (W) 19:17:50 437.405
HO-68 06 Jul 19:14:25 19:19:31 23° 63° (ENE) 19:24:54 435.675
GONETS M04 06 Jul 19:17:53 19:25:31 35° 73° (ENE) 19:33:19
PRISM 06 Jul 19:26:31 19:30:34 48° 100° (E) 19:34:36 437.425
GOMX 1 06 Jul 19:36:28 19:41:02 34° 73° (ENE) 19:45:24 467.674
CUTE 1.7 + AOD 2 06 Jul 19:38:02 19:40:21 15° 69° (ENE) 19:42:51 437.475
CANX-2 06 Jul 19:41:14 19:44:04 18° 70° (ENE) 19:47:03 2200.000
CUTE-I 06 Jul 19:47:01 19:49:35 13° 270° (W) 19:51:49 437.470
SRMSAT 06 Jul 20:02:08 20:06:01 18° 186° (S) 20:09:52 437.500
DOVE 4 06 Jul 20:08:30 20:13:06 44° 75° (ENE) 20:17:29 437.250
BRITE-PL 06 Jul 20:12:46 20:18:13 61° 260° (W) 20:23:20 437.365/2234.400
CUBESAT XI-V 06 Jul 20:18:13 20:20:34 13° 293° (WNW) 20:22:41 437.345
SEEDS 06 Jul 20:20:39 20:24:30 38° 74° (ENE) 20:28:25 437.485
AAUSAT CUBESAT 2 06 Jul 20:25:46 20:29:18 28° 73° (ENE) 20:32:55 437.432
M-CUBED/EXP-1 PRIME 06 Jul 20:25:55 20:28:07 14° 97° (E) 20:30:38 437.505
STRAND 1 06 Jul 20:33:10 20:37:46 33° 289° (WNW) 20:42:16 437.568
CINEMA 3 06 Jul 20:36:20 20:40:28 37° 74° (ENE) 20:44:29 145.822/145.860
COMPASS 1 06 Jul 20:53:26 20:57:33 78° 79° (ENE) 21:01:44 437.405
HO-68 06 Jul 20:59:42 21:06:46 62° 258° (WSW) 21:13:51 435.675
ZACube-1 06 Jul 21:00:20 21:03:06 18° 71° (ENE) 21:06:00 437.345
Oscar 11 06 Jul 21:02:15 21:06:06 34° 73° (ENE) 21:10:02 145.826/435.025
PRISM 06 Jul 21:03:56 21:05:37 12° 293° (WNW) 21:07:06 437.425
CUBEBUG 2 06 Jul 21:07:56 21:11:53 38° 74° (ENE) 21:15:48 437.445
CUTE 1.7 + AOD 2 06 Jul 21:12:04 21:15:59 37° 262° (W) 21:19:54 437.475
GONETS M04 06 Jul 21:14:25 21:22:32 44° 270° (W) 21:30:30
GOMX 1 06 Jul 21:15:07 21:19:11 23° 265° (W) 21:22:57 467.674
CANX-2 06 Jul 21:16:05 21:19:48 30° 264° (W) 21:23:30 2200.000
AUBIESAT-1 06 Jul 21:22:01 21:26:20 53° 104° (ESE) 21:30:52 437.475
FUNcube-1 06 Jul 21:34:02 21:38:00 44° 74° (ENE) 21:41:58 145.935
Cosmos 2499 06 Jul 21:35:12 21:43:05 58° 80° (E) 21:51:33 435.465 / 435.565
DOVE 4 06 Jul 21:48:05 21:51:03 15° 267° (W) 21:53:42 437.250
50 SAT 06 Jul 21:50:39 21:52:07 12° 69° (ENE) 21:53:47 437.505
SRMSAT 06 Jul 21:53:06 21:54:30 11° 195° (SSW) 21:55:46 437.500
UWE-3 06 Jul 21:53:16 21:57:31 75° 258° (WSW) 22:01:43 435.000/436.395/437.385
SEEDS 06 Jul 21:58:16 22:00:30 14° 269° (W) 22:02:32 437.485
DELFI C3 06 Jul 21:58:27 22:02:25 69° 258° (WSW) 22:06:26 145.870
M-CUBED/EXP-1 PRIME 06 Jul 21:58:52 22:03:06 49° 289° (WNW) 22:07:34 437.505
AAUSAT CUBESAT 2 06 Jul 22:02:02 22:04:58 18° 267° (W) 22:07:45 437.432
ESTCUBE 1 06 Jul 22:13:38 22:16:17 16° 68° (ENE) 22:19:08 437.505/2401.250
CINEMA 3 06 Jul 22:15:00 22:17:48 16° 267° (W) 22:20:22 145.822/145.860
DX 1 06 Jul 22:18:25 22:22:40 53° 75° (ENE) 22:26:58 434.975-435.025
VELOX 1 06 Jul 22:19:25 22:23:13 28° 71° (ENE) 22:27:03 145.980
UNISAT 6 06 Jul 22:30:52 22:34:25 24° 95° (E) 22:38:07 437.425
HUMSAT D 06 Jul 22:32:26 22:36:32 84° 258° (WSW) 22:40:38 437.325/437.525
UKube-1 06 Jul 22:35:15 22:39:35 78° 77° (ENE) 22:43:57 .
ZACube-1 06 Jul 22:35:35 22:39:18 30° 263° (W) 22:42:57 437.345
Oscar 11 06 Jul 22:39:39 22:42:26 16° 268° (W) 22:45:03 145.826/435.025
CUBEBUG 2 06 Jul 22:46:23 22:48:46 14° 268° (W) 22:50:55 437.445
QB50P1 06 Jul 22:47:23 22:49:08 13° 91° (E) 22:51:08 145.935-145.965
AUBIESAT-1 06 Jul 22:58:25 23:00:45 14° 295° (WNW) 23:02:55 437.475
NANOSAT C BR1 06 Jul 22:59:37 23:02:27 18° 93° (E) 23:05:25 145.865
DUCHIFAT 1 06 Jul 23:05:25 23:08:31 21° 94° (E) 23:11:43 145.980
AISAT 06 Jul 23:06:38 23:11:07 77° 258° (WSW) 23:15:35 437.250
PCSat 06 Jul 23:10:06 23:12:10 12° 45° (NE) 23:14:31 145.827
BUGSAT 1 06 Jul 23:11:27 23:13:37 14° 92° (E) 23:15:56 437.445
FUNcube-1 06 Jul 23:13:00 23:14:36 12° 269° (W) 23:15:57 145.935
POLYITAN 1 06 Jul 23:13:31 23:17:06 27° 96° (E) 23:20:45 437.675
ANTELSAT 06 Jul 23:14:45 23:19:12 80° 102° (ESE) 23:23:44 437.575/2403.000
CUBEBUG 1 06 Jul 23:16:10 23:20:34 69° 76° (ENE) 23:24:59 437.445
50 SAT 06 Jul 23:22:52 23:26:26 37° 262° (W) 23:30:00 437.505
TIGRISAT 06 Jul 23:25:56 23:30:21 79° 283° (WNW) 23:34:51 435.000
Cosmos 2499 06 Jul 23:29:29 23:35:52 25° 273° (W) 23:42:13 435.465 / 435.565
QB50P2 06 Jul 23:42:20 23:46:32 65° 101° (ESE) 23:50:43 145.880/145.840
POPSAT HIP 1 06 Jul 23:42:22 23:46:32 63° 101° (E) 23:50:42 437.405
SO-50 06 Jul 23:48:12 23:49:14 11° 41° (NE) 23:50:31 436.795
ESTCUBE 1 06 Jul 23:48:33 23:52:50 41° 261° (W) 23:57:09 437.505/2401.250
VELOX 1 06 Jul 23:56:15 23:59:45 22° 265° (W) 00:03:09 145.980
DX 1 06 Jul 23:58:05 23:59:18 11° 270° (W) 00:00:14 434.975-435.025
UNISAT 6 07 Jul 00:07:27 00:11:09 26° 288° (WNW) 00:14:50 437.425
SPROUT 07 Jul 00:08:01 00:12:19 73° 77° (ENE) 00:16:37 437.525
QB50P1 07 Jul 00:21:17 00:25:15 41° 286° (WNW) 00:29:12 145.935-145.965
RS-15 07 Jul 00:32:29 00:41:21 32° 106° (ESE) 00:50:44 29.354- 29.394
NANOSAT C BR1 07 Jul 00:34:40 00:38:21 29° 288° (WNW) 00:41:58 145.865
TISAT 1 07 Jul 00:39:01 00:43:16 73° 258° (WSW) 00:47:30 437.305
DUCHIFAT 1 07 Jul 00:40:48 00:44:19 26° 288° (WNW) 00:47:44 145.980
BEESAT 07 Jul 00:44:08 00:47:22 19° 68° (ENE) 00:50:46 436.000
BUGSAT 1 07 Jul 00:45:35 00:49:14 33° 287° (WNW) 00:52:49 437.445
POLYITAN 1 07 Jul 00:49:45 00:52:51 20° 290° (WNW) 00:55:52 437.675
PCSat 07 Jul 00:51:00 00:56:28 90° 121° (ESE) 01:01:52 145.827
SWISSCUBE 07 Jul 00:59:11 01:03:17 30° 71° (ENE) 01:07:29 437.505
ITUPSAT 1 07 Jul 01:05:46 01:09:55 31° 71° (ENE) 01:14:11 437.325
Cosmos 2491 07 Jul 01:13:35 01:20:36 28° 70° (ENE) 01:27:53 435.465 / 435.565
SO-50 07 Jul 01:25:43 01:30:41 80° 60° (ENE) 01:35:30 436.795
Oscar 19 07 Jul 01:31:27 01:35:56 31° 96° (E) 01:40:31 437.125/150
YUBILEINY 07 Jul 01:44:13 01:49:38 19° 83° (E) 01:55:32 435.215
ITAMSAT 1 07 Jul 01:51:35 01:53:02 11° 89° (E) 01:54:52 435.822/435.867
Gurwin Techsat 1B 07 Jul 02:00:00 02:03:07 16° 91° (E) 02:06:30 435.225
STARS 07 Jul 02:01:54 02:02:56 11° 67° (ENE) 02:04:13 437.465
BEESAT 07 Jul 02:20:30 02:24:57 38° 262° (W) 02:29:24 436.000
SWISSCUBE 07 Jul 02:37:16 02:41:09 24° 265° (W) 02:44:56 437.505
RS-15 07 Jul 02:42:21 02:53:07 62° 305° (NW) 03:04:10 29.354- 29.394
AIST 1 07 Jul 02:42:21 02:46:43 89° 80° (E) 02:51:01
ITUPSAT 1 07 Jul 02:44:04 02:47:52 22° 266° (W) 02:51:33 437.325
KKS-1 07 Jul 02:49:28 02:53:54 70° 76° (ENE) 02:58:20 437.445
Cosmos 2491 07 Jul 03:09:31 03:17:59 55° 269° (W) 03:26:20 435.465 / 435.565
Oscar 19 07 Jul 03:10:58 03:15:11 26° 291° (WNW) 03:19:19 437.125/150
JAS-2 07 Jul 03:25:58 03:32:20 38° 97° (E) 03:39:22 435.910
ITAMSAT 1 07 Jul 03:27:55 03:33:07 68° 285° (WNW) 03:38:16 435.822/435.867
MOZHAYETS 4 07 Jul 03:28:44 03:31:32 17° 69° (ENE) 03:34:32
STARS 07 Jul 03:34:36 03:38:56 58° 259° (W) 03:43:16 437.465
YUBILEINY 07 Jul 03:37:01 03:45:41 73° 279° (W) 03:54:23 435.215
Gurwin Techsat 1B 07 Jul 03:38:18 03:43:28 51° 287° (WNW) 03:48:35 435.225
AO-7 07 Jul 03:44:21 03:51:14 29° 96° (E) 03:58:19 29.400- 29.500
HORYU 2 07 Jul 03:46:19 03:49:50 23° 95° (E) 03:53:28 437.375
RS-15 07 Jul 05:01:22 05:08:39 18° 333° (NNW) 05:15:42 29.354- 29.394
Cosmos 2504 07 Jul 05:03:37 05:10:01 42° 90° (E) 05:16:28 435.465 / 435.565
MOZHAYETS 4 07 Jul 05:04:11 05:08:29 39° 262° (W) 05:12:47
JAS-2 07 Jul 05:11:05 05:17:19 37° 289° (WNW) 05:24:01 435.910
HORYU 2 07 Jul 05:22:40 05:26:27 27° 289° (WNW) 05:30:10 437.375
AO-7 07 Jul 05:36:17 05:44:24 54° 292° (WNW) 05:52:23 29.400- 29.500
CUBESAT XI-V 07 Jul 05:38:55 05:43:07 34° 73° (ENE) 05:47:25 437.345
YUBILEINY 07 Jul 05:41:42 05:44:26 11° 300° (WNW) 05:46:21 435.215
ISS 07 Jul 05:42:25 05:44:37 17° 129° (SE) 05:46:54 145.825
VERMONT LUNAR 07 Jul 05:51:24 05:54:27 59° 152° (SSE) 05:57:31 437.305
BEESAT 3 07 Jul 05:55:06 05:58:54 40° 115° (ESE) 06:02:46 437.485
STRAND 1 07 Jul 06:07:03 06:11:08 25° 69° (ENE) 06:15:21 437.568
BEESAT 2 07 Jul 06:11:23 06:15:18 48° 115° (ESE) 06:19:18 435.950
PRISM 07 Jul 06:13:39 06:16:52 22° 70° (ENE) 06:20:11 437.425
AIST 2 07 Jul 06:14:42 06:15:39 11° 109° (ESE) 06:16:52 435.215
DANDE 07 Jul 06:17:23 06:19:22 12° 92° (E) 06:21:44 436.750
CUTE-I 07 Jul 06:24:45 06:29:34 34° 97° (E) 06:34:24 437.470
CUSAT 1 07 Jul 06:32:46 06:37:25 22° 96° (E) 06:41:28 437.405
PHONESAT 2.4 07 Jul 06:51:32 06:54:35 31° 148° (SSE) 06:57:40 2401.200-2431.200
Cosmos 2504 07 Jul 06:56:40 07:02:25 26° 287° (WNW) 07:07:58 435.465 / 435.565
Cubesat XI-IV 07 Jul 06:59:29 07:04:52 77° 102° (ESE) 07:10:13 437.490
O/OREOS (USA 219) 07 Jul 07:00:20 07:04:46 70° 291° (WNW) 07:09:14 437.305
CUBESAT XI-V 07 Jul 07:17:11 07:20:39 20° 267° (W) 07:24:01 437.345
ISS 07 Jul 07:17:51 07:20:51 33° 323° (NW) 07:23:50 145.825
RS-15 07 Jul 07:23:46 07:27:50 12° 10° (N) 07:32:14 29.354- 29.394
VERMONT LUNAR 07 Jul 07:28:36 07:31:27 33° 348° (NNW) 07:34:20 437.305
BEESAT 3 07 Jul 07:34:24 07:37:04 16° 311° (NW) 07:39:36 437.485
STRAND 1 07 Jul 07:45:35 07:50:12 33° 263° (W) 07:54:47 437.568
PRISM 07 Jul 07:48:46 07:52:12 24° 264° (W) 07:55:35 437.425
AIST 2 07 Jul 07:49:37 07:53:48 55° 301° (WNW) 07:58:00 435.215
BEESAT 2 07 Jul 07:51:21 07:53:41 14° 312° (NW) 07:55:52 435.950
DANDE 07 Jul 07:55:12 08:02:33 86° 277° (W) 08:08:08 436.750
CUTE-I 07 Jul 08:05:06 08:09:31 26° 291° (WNW) 08:13:46 437.470
AUBIESAT-1 07 Jul 08:07:39 08:10:35 30° 68° (ENE) 08:13:40 437.475
DOVE 4 07 Jul 08:12:43 08:14:32 13° 92° (E) 08:16:35 437.250
CUSAT 1 07 Jul 08:13:58 08:19:59 40° 280° (W) 08:24:37 437.405
GONETS M04 07 Jul 08:14:07 08:22:15 45° 90° (E) 08:30:27
BRITE-PL 07 Jul 08:21:50 08:25:58 54° 99° (E) 08:30:01 437.365/2234.400
PHONESAT 2.4 07 Jul 08:29:09 08:32:30 52° 342° (NNW) 08:35:53 2401.200-2431.200
HO-68 07 Jul 08:31:42 08:37:50 31° 96° (E) 08:44:07 435.675
CINEMA 3 07 Jul 08:37:06 08:37:41 10° 90° (E) 08:38:34 145.822/145.860
COMPASS 1 07 Jul 08:41:28 08:44:04 16° 92° (E) 08:46:50 437.405
Cubesat XI-IV 07 Jul 08:42:17 08:44:23 12° 296° (WNW) 08:46:09 437.490
M-CUBED/EXP-1 PRIME 07 Jul 08:44:38 08:47:53 57° 255° (WSW) 08:51:15 437.505
CUTE 1.7 + AOD 2 07 Jul 09:00:23 09:04:31 46° 99° (E) 09:08:39 437.475
CANX-2 07 Jul 09:04:09 09:08:24 58° 100° (E) 09:12:38 2200.000
CUBEBUG 2 07 Jul 09:05:26 09:05:27 10° 90° (E) 09:05:47 437.445
VERMONT LUNAR 07 Jul 09:06:06 09:08:48 26° 5° (N) 09:11:32 437.305
GOMX 1 07 Jul 09:19:38 09:23:40 50° 285° (WNW) 09:27:42 467.674
FUNcube-1 07 Jul 09:27:56 09:29:00 11° 90° (E) 09:30:22 145.935
UNISAT 6 07 Jul 09:28:08 09:30:12 14° 69° (ENE) 09:32:28 437.425
RS-15 07 Jul 09:35:41 09:45:42 33° 42° (NE) 09:56:20 29.354- 29.394
DELFI C3 07 Jul 09:41:43 09:44:42 20° 94° (E) 09:47:46 145.870
SEEDS 07 Jul 09:43:37 09:47:51 64° 283° (WNW) 09:52:03 437.485
AUBIESAT-1 07 Jul 09:44:49 09:45:35 10° 264° (W) 09:46:08 437.475
DANDE 07 Jul 09:45:03 09:45:59 10° 289° (WNW) 09:46:21 436.750
UWE-3 07 Jul 09:46:45 09:50:21 27° 96° (E) 09:54:06 435.000/436.395/437.385
AAUSAT CUBESAT 2 07 Jul 09:46:47 09:51:01 90° 93° (E) 09:55:14 437.432
DOVE 4 07 Jul 09:48:41 09:52:32 38° 286° (WNW) 09:56:27 437.250
DUCHIFAT 1 07 Jul 09:56:50 09:57:33 11° 67° (ENE) 09:58:32 145.980
POLYITAN 1 07 Jul 10:04:28 10:06:40 14° 69° (ENE) 10:09:03 437.675
PHONESAT 2.4 07 Jul 10:07:52 10:10:55 28° 359° (N) 10:13:58 2401.200-2431.200
Cosmos 2499 07 Jul 10:08:34 10:15:14 48° 91° (E) 10:22:02 435.465 / 435.565
ANTELSAT 07 Jul 10:10:34 10:14:36 43° 74° (ENE) 10:18:40 437.575/2403.000
CINEMA 3 07 Jul 10:11:09 10:15:13 50° 285° (WNW) 10:19:24 145.822/145.860
GONETS M04 07 Jul 10:11:24 10:19:16 34° 287° (WNW) 10:26:56
DX 1 07 Jul 10:12:26 10:13:56 12° 91° (E) 10:15:43 434.975-435.025
COMPASS 1 07 Jul 10:16:02 10:19:51 33° 287° (WNW) 10:23:38 437.405
HO-68 07 Jul 10:19:00 10:25:42 43° 292° (WNW) 10:32:18 435.675
HUMSAT D 07 Jul 10:20:34 10:23:36 20° 94° (E) 10:26:46 437.325/437.525
TIGRISAT 07 Jul 10:21:20 10:25:31 57° 75° (ENE) 10:29:42 435.000
ZACube-1 07 Jul 10:26:42 10:30:56 62° 100° (E) 10:35:15 437.345
UKube-1 07 Jul 10:27:27 10:30:11 17° 93° (E) 10:33:03 .
Oscar 11 07 Jul 10:28:31 10:32:52 69° 283° (WNW) 10:37:11 145.826/435.025
POPSAT HIP 1 07 Jul 10:31:56 10:35:36 29° 72° (ENE) 10:39:18 437.405
QB50P2 07 Jul 10:32:00 10:35:43 30° 73° (ENE) 10:39:28 145.880/145.840
CUTE 1.7 + AOD 2 07 Jul 10:38:00 10:40:04 13° 291° (WNW) 10:41:56 437.475
CUBEBUG 2 07 Jul 10:38:20 10:42:30 54° 285° (WNW) 10:46:45 437.445
VERMONT LUNAR 07 Jul 10:42:55 10:46:01 66° 21° (NNE) 10:49:08 437.305
CANX-2 07 Jul 10:42:58 10:43:53 10° 293° (WNW) 10:44:31 2200.000
AISAT 07 Jul 11:01:22 11:05:01 26° 96° (E) 11:08:43 437.250
FUNcube-1 07 Jul 11:01:31 11:05:39 50° 285° (WNW) 11:09:51 145.935
50 SAT 07 Jul 11:01:51 11:05:16 28° 97° (E) 11:08:44 437.505
UNISAT 6 07 Jul 11:02:36 11:06:41 41° 262° (W) 11:10:43 437.425
CUBEBUG 1 07 Jul 11:09:53 11:12:31 16° 92° (E) 11:15:20 437.445
QB50P1 07 Jul 11:09:57 11:14:12 89° 79° (E) 11:18:27 145.935-145.965
DELFI C3 07 Jul 11:16:22 11:19:45 25° 288° (WNW) 11:23:03 145.870
NANOSAT C BR1 07 Jul 11:22:56 11:27:08 64° 259° (W) 11:31:20 145.865
UWE-3 07 Jul 11:23:29 11:26:47 21° 288° (WNW) 11:30:00 435.000/436.395/437.385
DUCHIFAT 1 07 Jul 11:28:47 11:32:57 55° 260° (W) 11:37:05 145.980
BUGSAT 1 07 Jul 11:31:17 11:35:31 82° 258° (WSW) 11:39:43 437.445
POLYITAN 1 07 Jul 11:38:17 11:42:16 39° 262° (W) 11:46:15 437.675
ESTCUBE 1 07 Jul 11:44:31 11:48:57 52° 100° (E) 11:53:21 437.505/2401.250
PHONESAT 2.4 07 Jul 11:46:03 11:49:22 44° 15° (NNE) 11:52:42 2401.200-2431.200
DX 1 07 Jul 11:46:20 11:50:31 47° 286° (WNW) 11:54:39 434.975-435.025
RS-15 07 Jul 11:47:35 11:59:24 75° 244° (WSW) 12:11:33 29.354- 29.394
VELOX 1 07 Jul 11:49:00 11:53:26 87° 283° (WNW) 11:57:49 145.980
ANTELSAT 07 Jul 11:49:46 11:51:40 12° 269° (W) 11:53:20 437.575/2403.000
HUMSAT D 07 Jul 11:55:46 11:59:21 27° 287° (WNW) 12:02:52 437.325/437.525
SPROUT 07 Jul 11:59:26 12:02:04 16° 93° (E) 12:04:50 437.525
UKube-1 07 Jul 12:02:30 12:06:25 33° 288° (WNW) 12:10:16 .
Cosmos 2499 07 Jul 12:03:08 12:08:45 24° 289° (WNW) 12:14:11 435.465 / 435.565
POPSAT HIP 1 07 Jul 12:08:28 12:11:31 18° 266° (W) 12:14:26 437.405
QB50P2 07 Jul 12:08:43 12:11:41 18° 267° (W) 12:14:30 145.880/145.840
VERMONT LUNAR 07 Jul 12:20:21 12:22:43 19° 214° (SW) 12:25:02 437.305
TISAT 1 07 Jul 12:27:41 12:30:54 22° 95° (E) 12:34:11 437.305
50 SAT 07 Jul 12:37:06 12:39:41 17° 289° (WNW) 12:42:08 437.505
AISAT 07 Jul 12:37:59 12:41:30 23° 290° (WNW) 12:44:54 437.250
Oscar 19 07 Jul 12:44:58 12:49:27 32° 71° (ENE) 12:54:01 437.125/150
CUBEBUG 1 07 Jul 12:45:03 12:49:02 35° 287° (WNW) 12:52:55 437.445
ITAMSAT 1 07 Jul 13:06:01 13:08:26 14° 65° (ENE) 13:11:09 435.822/435.867
ITUPSAT 1 07 Jul 13:12:51 13:13:19 10° 89° (E) 13:14:10 437.325
Gurwin Techsat 1B 07 Jul 13:17:45 13:21:21 19° 67° (ENE) 13:25:09 435.225
ESTCUBE 1 07 Jul 13:23:17 13:25:25 13° 293° (WNW) 13:27:17 437.505/2401.250
PHONESAT 2.4 07 Jul 13:24:06 13:27:23 40° 210° (SSW) 13:30:38 2401.200-2431.200
SPROUT 07 Jul 13:34:24 13:38:16 33° 287° (WNW) 13:42:05 437.525
PCSat 07 Jul 13:47:40 13:51:17 19° 107° (ESE) 13:55:08 145.827
ISS 07 Jul 13:47:48 13:50:57 48° 40° (NE) 13:54:05 145.825
YUBILEINY 07 Jul 13:51:38 14:00:00 48° 77° (ENE) 14:08:27 435.215
TISAT 1 07 Jul 14:03:12 14:06:38 24° 289° (WNW) 14:09:56 437.305
RS-15 07 Jul 14:04:31 14:10:32 14° 259° (W) 14:15:20 29.354- 29.394
Cosmos 2491 07 Jul 14:10:07 14:17:46 36° 88° (E) 14:25:36 435.465 / 435.565
BEESAT 07 Jul 14:23:49 14:28:37 72° 102° (ESE) 14:33:22 436.000
Oscar 19 07 Jul 14:24:38 14:28:51 25° 265° (W) 14:32:56 437.125/150
BEESAT 2 07 Jul 14:35:30 14:36:59 12° 46° (NE) 14:38:38 435.950
AO-7 07 Jul 14:39:50 14:46:41 31° 62° (ENE) 14:53:47 29.400- 29.500
SWISSCUBE 07 Jul 14:39:58 14:44:46 70° 284° (WNW) 14:49:31 437.505
ITAMSAT 1 07 Jul 14:42:17 14:47:27 64° 259° (WSW) 14:52:40 435.822/435.867
HORYU 2 07 Jul 14:42:27 14:44:46 15° 68° (ENE) 14:47:18 437.375
KKS-1 07 Jul 14:45:13 14:48:05 17° 93° (E) 14:51:08 437.445
ITUPSAT 1 07 Jul 14:46:57 14:51:45 66° 285° (WNW) 14:56:29 437.325
Gurwin Techsat 1B 07 Jul 14:55:57 15:01:01 46° 261° (W) 15:06:07 435.225
AIST 1 07 Jul 15:07:45 15:12:05 63° 95° (E) 15:16:27
JUGNU 07 Jul 15:13:58 15:17:36 17° 172° (S) 15:21:18 437.505
JAS-2 07 Jul 15:20:10 15:25:18 72° 76° (ENE) 15:30:42 435.910
ISS 07 Jul 15:25:43 15:27:02 12° 232° (SW) 15:28:15 145.825
STARS 07 Jul 15:28:00 15:31:54 32° 97° (E) 15:35:51 437.465
PCSat 07 Jul 15:29:10 15:34:23 47° 300° (WNW) 15:39:37 145.827
SO-50 07 Jul 15:36:27 15:41:02 59° 116° (ESE) 15:45:49 436.795
O/OREOS (USA 219) 07 Jul 15:37:18 15:38:16 11° 55° (NE) 15:39:30 437.305
YUBILEINY 07 Jul 15:49:02 15:56:34 32° 273° (W) 16:03:51 435.215
BEESAT 3 07 Jul 15:54:20 15:58:23 72° 243° (WSW) 16:02:20 437.485
BEESAT 07 Jul 16:04:45 16:05:55 11° 295° (WNW) 16:06:46 436.000
Cosmos 2491 07 Jul 16:06:12 16:14:30 43° 284° (WNW) 16:22:43 435.465 / 435.565
BEESAT 2 07 Jul 16:11:28 16:15:29 59° 244° (WSW) 16:19:24 435.950
SRMSAT 07 Jul 16:13:18 16:16:07 14° 168° (SSE) 16:19:01 437.500
AIST 2 07 Jul 16:14:50 16:18:35 31° 55° (NE) 16:22:18 435.215
HORYU 2 07 Jul 16:16:53 16:21:05 43° 261° (W) 16:25:17 437.375
KKS-1 07 Jul 16:20:50 16:24:51 34° 287° (WNW) 16:28:48 437.445
